RH
34 29 34 25 36 52 80 68 75 53 43 35 37 37 43 46 40 37 36 35 28 19 12 11 10 9 11 13 10 8 8 7 8 8 7 8 9 9 9 10 10 10 8 9 10 11 12 8 8 8 9 10 12 13
25 36 31 38 60 68 83 76 69 48 32 36 35 39 42 44 37 35 34 25 16 11 9 10 8 11 13 9 8 8 7 7 7 7 8 10 9 9 10 10 11 10 10 9 10 11 12 11 8 8 9 9 9 12
29 34 35 44 74 94 74 57 45 38 33 34 36 40 39 34 32 30 20 13 10 9 8 9 12 12 8 8 8 8 8 7 7 9 10 10 10 10 11 10 10 10 10 10 9 10 10 12 12 9 8 9 9 10
32 44 55 77 85 74 54 49 38 33 35 33 33 38 33 33 27 16 12 10 9 8 9 12 9 7 7 7 7 8 7 7 10 10 10 11 11 11 10 9 9 9 10 10 10 10 10 10 12 13 11 9 8 9
38 62 79 83 92 70 48 47 37 34 30 30 34 34 28 22 13 11 9 8 9 11 11 9 7 6 6 6 6 6 8 9 9 11 11 10 10 9 9 8 8 8 9 10 11 10 10 10 10 12 14 13 12 9
45 85 70 80 71 46 53 38 30 28 34 31 29 26 16 12 9 8 9 9 11 11 7 6 6 6 7 6 6 8 9 9 9 9 10 10 8 8 8 8 8 8 8 10 11 11 10 10 10 10 12 14 13 13
47 70 69 59 58 53 36 29 30 32 34 23 22 14 11 9 8 9 11 11 8 6 6 6 6 6 5 6 7 8 9 10 9 9 8 7 7 7 7 8 8 8 8 9 10 11 10 9 10 10 10 11 12 12
73 76 67 52 38 32 29 33 33 31 22 17 12 9 8 8 9 11 10 7 6 6 6 6 5 5 6 6 7 8 9 9 9 7 6 6 7 7 7 7 7 8 9 9 9 10 10 9 9 10 9 10 10 10
78 57 42 34 32 34 32 33 26 21 14 11 9 8 8 10 10 8 7 6 6 6 6 6 6 7 7 7 7 8 9 8 6 6 6 8 8 8 7 7 7 8 9 9 9 9 9 9 9 9 9 9 10 9
40 35 32 31 33 31 31 24 16 12 9 9 8 8 10 10 7 6 6 6 6 5 5 6 6 7 7 7 7 7 6 6 6 6 8 9 10 8 8 8 8 9 9 9 9 9 8 9 10 10 9 9 9 10
32 34 31 35 29 26 19 14 11 9 8 8 9 11 9 7 6 5 6 6 5 5 6 6 7 7 7 8 7 6 6 6 7 8 9 9 8 8 7 8 8 9 9 9 9 9 8 9 9 10 11 11 10 10
33 30 32 25 28 16 12 10 9 8 9 10 10 8 6 6 6 6 5 4 5 6 6 7 6 7 7 6 6 6 6 8 8 8 9 8 8 8 8 8 9 9 9 9 8 9 8 8 9 10 10 10 9 8
27 30 31 21 15 12 9 9 9 9 10 9 7 6 6 6 5 4 5 6 6 7 7 7 7 7 6 5 5 6 7 8 8 8 8 8 8 8 9 8 8 9 9 9 9 9 9 10 10 10 9 8 8 7
28 27 19 14 11 9 8 9 10 10 8 7 6 5 5 5 5 5 6 6 6 6 7 7 7 6 5 5 5 6 7 8 9 8 8 8 9 9 9 9 9 8 8 8 8 9 10 11 10 9 8 8 7 6
23 16 13 10 8 9 10 11 11 8 7 6 5 5 5 5 6 6 6 7 7 7 7 7 6 5 5 4 5 6 7 7 8 8 8 8 9 9 10 9 9 8 8 8 8 9 10 10 10 9 8 8 7 6
14 12 10 8 9 11 10 8 7 6 6 6 6 5 5 6 5 6 6 7 7 7 6 6 5 5 4 4 4 5 5 6 7 8 9 9 9 9 9 10 9 8 8 8 8 9 10 10 10 9 8 8 7 6
11 9 9 10 11 9 8 7 6 6 6 5 5 6 6 6 7 7 7 6 7 6 6 5 5 5 5 6 5 5 4 5 5 6 7 9 9 9 9 10 10 9 8 7 8 9 10 10 9 9 8 8 8 7
9 9 11 11 9 8 7 6 6 6 6 6 6 7 6 7 7 7 7 8 8 6 6 6 6 5 6 6 5 5 5 5 5 5 6 7 8 9 9 10 10 10 9 8 7 7 8 9 9 9 9 8 8 8
10 12 10 10 8 7 6 6 6 5 6 7 6 8 8 8 9 10 9 9 7 7 6 5 5 6 6 6 5 5 5 5 5 5 6 6 7 8 8 9 9 9 9 9 8 8 7 6 7 7 8 8 8 8
11 10 8 8 7 6 6 6 6 7 7 7 8 8 9 9 8 8 8 7 7 6 6 6 6 6 6 6 5 5 5 5 5 6 6 7 7 7 8 8 8 9 9 9 9 9 8 7 7 6 6 7 7 7
10 8 7 6 6 6 6 7 8 7 7 9 9 9 8 8 8 9 9 8 8 8 7 6 6 6 6 6 6 6 6 6 5 6 7 7 7 8 8 8 8 8 9 9 9 9 8 8 7 7 6 6 6 6
8 7 7 7 7 7 8 8 7 8 9 9 9 9 10 10 9 9 9 10 9 8 7 6 6 6 6 6 6 6 6 6 6 6 6 6 7 7 7 8 8 8 8 8 8 8 7 7 7 7 6 6 5 5
6 6 6 6 7 9 9 7 8 9 9 9 9 10 9 9 10 12 11 10 9 8 8 8 7 6 6 7 7 7 6 6 6 6 6 6 6 6 6 7 7 7 7 7 7 7 7 6 6 6 6 6 5 5
6 6 6 8 9 8 7 9 10 10 10 10 10 9 10 11 13 11 10 10 10 11 11 10 8 7 6 6 7 7 7 7 7 7 7 7 7 7 7 7 7 7 7 6 6 6 6 6 6 6 6 5 5 4
6 7 8 8 8 8 9 10 11 11 11 12 11 11 12 13 11 10 10 11 11 10 10 11 11 11 10 8 7 7 7 7 7 7 7 7 7 7 7 8 8 8 8 7 7 6 6 7 6 6 5 5 5 5
8 8 9 9 8 10 10 11 12 12 12 11 10 11 12 11 10 10 10 10 11 12 12 11 10 10 10 10 10 8 8 8 8 8 8 8 8 8 8 8 9 9 9 8 8 7 6 6 6 6 6 5 5 5
9 10 10 9 9 10 11 12 11 11 11 11 12 12 11 11 13 14 13 12 10 10 10 11 11 10 10 10 9 9 8 7 7 7 7 7 7 7 7 8 8 9 9 9 9 8 7 7 6 6 6 5 5 5
10 10 11 9 10 10 10 10 12 13 13 12 12 12 13 12 12 11 11 11 10 10 10 10 10 10 10 10 10 11 11 11 11 9 8 8 8 8 8 8 9 10 10 9 9 8 7 7 6 6 6 6 5 5
10 10 11 11 13 12 14 16 16 15 15 16 16 15 15 14 13 12 12 12 11 10 10 10 9 9 9 10 10 10 10 9 9 9 9 8 8 8 8 8 8 8 9 10 10 10 9 8 6 6 5 5 5 5
9 10 11 12 12 14 16 17 18 20 20 20 19 19 16 13 12 12 12 10 9 8 8 9 9 10 10 10 10 10 10 11 11 10 10 9 9 9 9 8 8 8 8 8 8 9 9 8 8 7 6 5 5 5
9 9 10 11 12 14 16 17 18 18 18 18 18 16 14 14 14 12 10 10 9 9 9 8 9 9 10 11 11 11 11 11 10 10 10 10 10 10 10 10 9 8 8 8 8 8 8 9 8 8 7 7 6 5
9 10 10 11 12 13 14 14 15 16 17 17 17 18 19 17 14 12 11 11 11 11 11 11 11 11 11 11 11 11 11 11 12 13 11 10 10 10 10 10 10 10 10 9 9 8 8 8 8 8 9 9 8 8
9 10 10 10 11 12 13 14 16 16 17 18 20 20 18 16 15 13 12 10 10 10 10 10 10 11 11 12 13 13 14 13 13 12 12 12 13 12 12 11 11 10 10 10 10 9 9 9 9 8 8 8 8 8
Wind_Speed
86 86 91 94 92 94 97 100 105 107 110 115 118 118 119 120 124 127 134 137 133 125 115 109 107 101 99 93 87 79 74 68 62 58 53 49 47 43 39 35 34 32 30 28 31 32 35 36 41 48 53 58 63 69
88 90 98 94 94 96 100 104 109 112 115 118 122 123 124 127 130 135 137 129 121 115 108 104 99 95 92 86 79 72 68 63 57 53 51 48 44 40 36 34 32 30 30 30 30 33 34 37 40 45 51 54 59 65
95 96 95 95 97 99 104 110 113 116 117 123 127 127 131 131 132 134 123 116 113 108 101 98 95 90 84 77 71 66 61 57 53 51 47 43 40 37 35 32 30 29 29 30 30 32 35 37 40 42 47 52 55 60
98 98 97 98 102 107 109 113 119 121 125 128 130 128 132 135 132 119 114 110 103 98 96 94 87 81 75 70 65 60 57 53 50 47 42 38 36 35 33 31 29 29 29 29 29 31 34 37 40 42 43 47 53 56
101 100 100 104 107 113 116 121 125 124 128 131 129 134 133 126 115 111 106 100 98 94 89 85 81 75 70 64 59 55 53 50 45 40 39 37 34 33 31 30 28 28 27 26 28 31 33 36 39 42 44 45 48 52
102 102 107 110 114 118 122 127 125 131 131 130 131 131 120 112 107 102 100 96 90 86 82 76 71 67 62 59 54 51 48 44 41 39 36 34 34 32 29 29 29 27 24 25 27 29 32 35 37 40 43 46 48 50
106 107 110 116 120 123 126 129 130 130 133 130 128 114 109 105 100 97 92 88 84 77 74 71 66 61 57 53 50 45 41 40 38 36 34 32 31 30 28 27 28 25 23 24 24 27 30 33 35 39 41 44 46 49
108 111 117 121 124 128 130 130 131 133 127 123 110 108 102 97 94 89 84 80 76 72 68 64 60 56 52 48 44 40 38 36 35 35 33 31 29 29 27 26 25 23 23 23 23 24 27 30 33 36 40 43 45 47
112 116 121 125 127 129 130 132 128 127 117 110 107 101 97 90 86 82 77 73 69 65 61 59 56 55 49 45 41 37 35 33 33 33 31 28 26 25 24 24 23 21 22 22 22 23 25 28 31 34 36 39 42 45
116 120 128 128 129 129 132 128 121 112 108 105 100 95 89 86 80 76 71 68 64 60 56 54 51 47 45 42 40 35 32 32 32 30 26 25 22 19 19 20 21 20 20 20 21 22 23 25 28 31 34 37 39 42
122 126 130 128 131 129 125 115 109 107 102 98 93 88 84 79 74 70 67 62 58 54 52 49 45 43 41 38 36 33 32 32 29 26 24 21 18 18 19 19 18 18 18 19 19 21 22 24 26 29 32 35 37 39
127 132 130 129 129 120 113 108 106 100 96 90 87 82 78 73 69 65 60 57 54 52 48 45 42 40 36 34 33 32 30 28 26 25 21 19 17 17 17 16 15 15 16 17 18 20 21 22 24 26 29 32 34 36
132 130 128 126 117 112 108 102 97 92 88 84 81 76 72 68 62 59 56 54 51 47 44 41 39 34 32 31 31 29 25 24 24 23 20 17 16 15 15 15 14 14 15 16 17 18 19 20 21 23 25 28 31 34
128 128 123 115 110 107 100 94 88 86 82 77 73 69 65 61 59 56 53 49 45 42 40 37 33 32 30 31 29 26 24 22 22 20 18 15 13 13 13 14 14 14 15 15 15 16 17 19 20 21 22 24 26 29
126 120 113 107 104 97 90 87 87 82 78 73 68 64 60 56 52 50 47 44 42 39 35 31 31 29 29 28 26 24 23 21 19 18 16 14 13 12 12 13 12 12 12 13 14 15 16 17 18 19 20 21 22 25
115 109 108 101 95 89 86 81 77 72 69 66 62 58 55 52 49 44 42 40 37 32 29 29 27 26 26 25 24 23 21 20 18 16 15 14 13 12 12 12 12 12 11 12 13 14 14 14 15 17 18 19 20 21
106 104 96 91 88 85 80 76 71 68 63 59 55 52 50 47 44 41 39 36 32 30 29 28 29 28 25 23 22 21 20 19 18 16 15 14 12 12 11 11 11 11 11 11 12 12 13 13 14 14 16 17 18 19
99 93 88 84 81 77 72 68 65 60 57 54 51 49 46 43 42 41 39 35 32 30 29 28 26 24 23 23 22 20 19 19 18 16 15 13 12 11 11 10 10 10 10 9 10 11 12 12 13 13 14 15 16 17
89 84 82 80 75 71 67 63 58 55 52 50 46 42 40 40 39 36 33 32 29 27 25 25 24 24 24 22 21 20 19 18 17 17 15 14 12 11 10 10 10 9 10 10 10 10 10 11 11 12 12 13 14 14
81 79 75 72 67 63 59 55 53 50 47 44 42 38 36 34 33 30 28 27 25 24 26 26 24 24 24 23 21 20 19 18 18 18 16 15 14 13 12 11 10 10 10 10 10 10 10 10 9 9 10 10 11 12
77 73 69 64 61 56 53 50 48 46 42 38 37 38 37 35 33 32 31 31 32 29 26 24 22 23 23 22 20 19 19 19 18 18 18 17 16 14 13 12 12 11 10 10 10 10 10 10 10 9 9 9 10 9
68 64 60 56 51 48 46 45 43 40 37 34 33 33 34 35 33 31 30 26 25 24 25 24 23 23 23 22 22 20 19 18 18 18 17 17 17 16 15 14 13 13 12 12 11 11 10 10 10 10 9 8 8 8
59 56 52 48 45 44 42 40 37 35 33 32 32 31 29 30 31 30 28 27 27 26 25 26 25 24 23 23 22 22 21 21 20 19 19 19 19 19 18 17 16 15 13 13 13 12 12 12 12 11 11 10 9 8
51 47 43 42 41 39 37 34 32 30 30 30 30 30 31 31 30 26 25 25 27 29 29 28 27 25 23 23 22 22 22 22 22 22 21 21 21 21 21 20 19 19 17 16 15 14 14 13 13 12 12 11 10 9
43 41 40 38 37 34 31 29 28 27 28 28 28 29 30 28 25 27 30 31 31 29 28 26 25 26 26 26 25 24 23 23 22 22 22 22 22 22 23 23 22 22 21 21 19 18 17 15 15 14 13 12 11 10
39 38 36 34 32 29 26 25 25 24 25 26 27 29 29 28 30 32 31 30 29 28 28 29 28 27 26 25 24 24 24 24 23 23 22 22 21 21 21 21 21 21 20 20 20 19 19 19 18 17 16 15 13 12
35 34 32 30 27 25 24 23 22 24 25 26 25 23 24 26 28 28 28 29 29 29 28 28 28 28 28 28 28 27 26 26 26 26 26 26 25 25 24 24 24 24 24 24 24 23 23 22 20 18 17 16 16 15
31 30 28 26 25 24 23 23 25 24 24 24 24 26 27 28 29 29 30 30 31 31 30 29 29 29 28 28 29 29 29 28 27 26 26 26 25 26 27 27 27 26 25 25 25 25 24 22 21 21 19 17 16 16
28 27 25 24 24 24 25 24 23 23 24 24 25 26 27 27 29 31 31 31 32 33 31 30 30 31 31 31 31 31 30 30 31 31 30 29 28 28 27 27 27 27 27 27 26 26 25 24 24 24 23 22 21 19
25 25 24 23 23 24 24 24 25 25 25 26 27 27 28 30 32 34 33 32 31 32 33 33 33 33 33 33 34 34 35 35 34 33 32 32 32 31 30 29 29 29 28 28 28 28 29 28 27 26 26 25 23 22
24 24 24 24 24 25 24 24 25 26 28 30 30 30 33 36 36 35 35 36 37 38 37 36 36 36 36 36 36 36 36 35 35 36 37 36 34 34 34 33 31 31 32 31 32 32 32 32 31 30 29 28 27 25
26 26 26 27 27 28 28 29 32 34 34 33 35 37 37 35 35 37 38 38 38 38 38 38 37 37 38 37 37 38 39 41 41 39 37 37 39 39 38 38 37 36 35 35 34 34 33 33 32 32 31 31 30 29
28 29 30 30 31 32 33 34 36 36 37 38 38 36 37 39 42 42 42 42 42 42 43 44 44 44 44 43 43 42 41 41 41 41 42 42 42 41 40 40 40 40 39 38 38 37 36 35 34 33 32 32 31 30
Wind_Direction
313 311 316 315 314 314 310 313 316 316 317 319 320 318 317 316 315 315 314 315 316 315 315 315 315 316 316 315 315 315 314 313 313 311 310 308 305 302 299 293 287 280 273 258 251 243 241 236 230 227 226 222 220 221
314 314 314 315 314 314 315 314 316 317 317 318 319 318 316 316 316 316 314 315 314 314 316 315 316 316 315 316 315 314 313 312 312 311 309 307 304 301 297 292 285 277 270 262 248 244 238 236 232 229 227 227 222 220
312 312 316 315 314 315 315 315 317 317 317 319 319 317 315 318 317 316 315 314 315 315 316 316 317 316 315 315 314 314 312 312 311 309 307 305 302 299 295 290 283 276 268 259 251 242 239 234 233 230 228 227 226 223
317 314 316 315 312 315 315 315 315 316 316 318 318 316 318 317 316 316 315 315 316 316 317 316 316 315 314 314 314 314 313 312 309 307 304 301 298 295 292 287 282 275 267 259 253 244 239 236 232 232 229 227 227 226
318 315 314 312 313 313 314 315 315 315 317 317 318 319 316 317 316 315 315 316 316 317 316 315 315 315 315 315 315 314 312 311 309 307 305 303 298 295 291 286 279 273 269 262 252 246 240 237 235 231 231 229 228 228
317 313 312 311 313 313 313 315 315 317 315 319 320 317 317 316 316 316 317 316 316 317 316 315 315 315 315 315 315 313 311 309 308 307 304 300 298 295 290 285 280 275 269 261 253 247 243 237 234 234 231 231 230 229
316 313 313 313 313 313 315 316 316 318 317 319 317 317 317 317 317 317 317 317 316 317 317 316 316 317 317 316 314 313 311 310 308 306 303 300 297 292 287 283 279 277 271 261 253 246 243 239 234 232 233 232 231 231
313 314 313 313 314 315 316 316 318 319 318 318 318 318 317 318 318 318 318 317 318 318 317 317 318 317 316 315 315 315 313 310 307 305 304 301 295 290 285 281 280 277 269 264 255 245 242 241 237 233 232 233 233 232
313 313 313 314 315 315 316 317 319 317 319 318 319 319 319 319 319 319 319 319 319 319 319 319 319 319 318 318 317 317 313 310 307 305 305 300 296 290 286 282 281 276 269 264 256 248 242 238 236 235 233 232 233 234
313 314 316 315 315 316 318 317 319 319 320 319 320 319 320 321 320 320 321 321 321 320 320 320 320 319 319 319 319 319 316 313 310 311 310 306 300 291 283 278 275 271 264 259 254 248 241 236 233 234 235 236 234 235
314 317 317 318 317 319 319 320 319 320 320 319 320 321 321 321 322 322 322 322 321 321 322 321 321 321 321 320 320 321 319 317 315 317 315 311 301 288 283 281 277 268 263 260 254 246 239 234 233 232 236 238 237 237
316 317 316 320 317 320 320 320 321 320 320 321 321 322 322 323 324 323 323 324 324 324 324 323 323 322 322 322 323 322 321 320 321 321 319 311 304 297 291 287 283 277 271 264 254 248 244 240 237 236 236 239 241 240
316 318 319 320 319 320 320 321 320 320 321 323 323 324 324 323 324 326 326 325 325 325 325 325 325 325 325 325 325 325 325 324 325 323 320 312 306 300 295 292 287 278 273 265 256 255 254 250 247 243 242 239 239 239
319 317 319 318 320 321 321 320 321 322 323 324 324 324 325 327 328 327 326 327 327 327 328 328 328 328 328 328 327 328 330 330 330 326 322 316 308 303 302 298 294 285 273 261 254 254 255 256 254 251 248 243 240 237
318 318 319 319 320 320 321 323 324 325 325 325 326 328 328 328 328 327 328 328 329 331 331 331 332 332 331 331 332 334 335 335 333 329 323 317 312 307 305 303 301 295 279 265 259 257 255 254 256 258 256 251 246 240
318 320 319 320 320 321 322 324 325 325 326 327 328 329 328 329 330 331 332 332 331 333 336 338 336 336 338 339 340 340 339 340 337 333 329 322 316 313 311 310 306 300 285 271 268 267 264 262 260 259 259 257 251 247
319 319 319 320 322 323 324 325 326 327 328 328 330 330 330 332 333 334 334 337 341 343 343 344 347 344 342 343 344 345 346 346 345 341 335 330 325 320 317 314 312 309 301 288 279 275 272 269 265 262 259 259 256 253
318 319 320 322 323 324 325 326 327 329 330 331 332 333 333 336 337 339 342 344 345 345 349 347 342 346 350 350 350 351 351 350 350 349 345 340 337 335 332 326 320 316 313 307 294 283 278 276 274 269 266 265 261 257
319 320 322 324 325 326 327 327 329 331 333 333 334 337 337 339 341 342 343 345 347 347 344 349 353 356 356 355 356 358 359 359 359 359 358 357 353 348 344 341 337 329 325 323 319 312 300 291 285 278 272 268 264 261
321 322 324 325 325 326 328 330 332 333 336 336 337 341 343 342 341 345 349 351 353 356 359 359 359 360 1 2 3 3 4 6 8 10 11 9 7 3 358 353 349 345 342 339 336 330 324 318 312 300 287 276 269 263
323 323 325 326 328 330 331 333 334 336 339 340 342 344 346 351 355 356 357 359 2 1 359 1 4 6 7 8 8 8 8 11 15 19 20 19 18 18 14 9 4 359 354 352 351 346 338 334 330 324 310 292 282 274
323 325 325 327 330 331 333 335 337 340 342 345 348 351 356 357 360 2 5 3 3 4 6 10 12 13 13 13 15 17 18 20 22 25 25 25 24 23 22 18 14 10 6 1 359 358 354 348 343 338 331 322 309 296
326 327 329 331 333 335 337 339 341 343 348 352 355 358 1 7 10 8 4 7 9 13 16 18 17 17 19 21 21 21 21 23 25 25 25 23 22 23 24 23 22 20 16 12 8 4 1 359 356 351 345 343 337 326
327 330 333 335 337 338 340 343 345 348 353 357 360 3 8 10 9 9 16 20 22 20 17 16 19 23 26 27 27 27 27 28 28 27 26 26 24 24 23 24 23 24 23 21 19 15 11 7 4 360 356 356 357 356
333 336 338 340 341 343 344 347 351 355 357 2 4 9 11 11 13 19 22 22 22 23 26 27 25 24 23 23 26 29 30 31 31 30 29 28 27 27 28 28 27 26 24 22 19 17 16 14 12 9 8 8 8 11
338 340 342 343 344 346 349 354 357 0 5 8 12 15 13 12 18 23 25 27 27 25 24 25 29 31 33 34 34 34 34 34 34 34 34 34 33 32 31 29 28 27 26 26 27 27 27 26 25 23 21 17 17 18
343 344 344 346 348 350 356 357 4 10 12 14 14 15 19 25 29 29 29 28 28 32 33 32 31 32 33 35 36 38 39 40 39 38 38 38 37 37 35 35 34 33 32 30 29 28 30 30 29 28 28 28 30 29
347 348 350 354 358 359 3 9 16 16 16 16 19 22 25 27 29 31 32 32 32 34 35 36 38 39 40 40 40 41 41 40 40 41 42 41 41 39 38 36 34 34 35 36 36 36 36 35 35 35 34 32 33 34
355 357 360 7 8 13 19 21 22 22 24 27 29 30 30 30 32 36 36 35 36 38 39 39 42 44 45 45 46 46 46 47 46 45 45 44 45 45 45 42 41 40 40 39 39 39 39 40 41 41 41 41 41 42
5 11 15 19 22 26 28 29 30 32 33 35 37 36 36 38 41 42 41 41 41 45 47 47 45 46 47 47 47 47 47 47 47 47 47 47 46 46 45 45 44 44 44 44 44 44 44 44 44 45 45 45 45 45
18 23 27 30 33 35 37 40 45 48 49 49 48 47 45 44 44 43 44 46 46 46 47 49 50 51 51 51 51 50 51 52 52 50 49 48 49 50 50 49 48 46 46 45 45 45 45 45 46 46 47 46 46 47
34 38 40 42 45 47 49 51 53 54 53 53 51 49 48 49 51 52 53 54 56 57 56 56 57 57 57 57 56 55 53 52 51 51 50 50 50 50 50 50 49 49 48 47 47 47 46 46 45 46 46 47 48 48
46 49 51 53 54 56 57 58 58 58 58 59 60 60 59 58 57 57 58 58 58 58 59 59 59 59 58 58 58 58 58 58 57 55 54 53 52 51 50 50 49 49 48 48 48 47 47 47 47 47 47 47 47 48